Location: Bad Salzschlirf
(50.3750°N, 9.3000°E)
Time: 03:58:21
(UTC+02:00)

ISS - Pass Details

Date: 15 July 2025
Orbit: 413 x 417 km, 51.6° (Epoch: 12 July)

Event Time Altitude Azimuth Distance (km) Brightness Sun altitude
Rises 00:20:37 0° 284° (WNW) 2,355 0.5 -16.5°
Reaches altitude 10° 00:22:43 10° 284° (WNW) 1,491 -0.6 -16.6°
Maximum altitude 00:26:04 87° 199° (SSW) 421 -3.9 -16.8°
Enters shadow 00:27:34 30° 108° (ESE) 766 -2.7 -16.8°
